Weather History for Kansas City International, MO

Change the Weather History Date:

Tuesday, November 27, 2012

  Actual Average Record
Temperature  
Mean Temperature 28 °F 38 °F  
Max Temperature 41 °F 47 °F 71 °F (1960)
Min Temperature 14 °F 29 °F 9 °F (1896)
Degree Days  
Heating Degree Days 37 27  
Month to date heating degree days 486 559  
Since 1 July heating degree days 888 919  
Cooling Degree Days 0 0  
Month to date cooling degree days 5 0  
Year to date cooling degree days 1839 1358  
Moisture  
Dew Point 13 °F    
Average Humidity 54    
Maximum Humidity 74    
Minimum Humidity 33    
Precipitation  
Precipitation 0.00 in 0.07 in 0.84 in (2006)
Month to date precipitation 1.36 1.95  
Year to date precipitation 20.94 37.13  
Snow  
Snow 0.00 in 0.10 in 4.50 in (1958)
Month to date snowfall T 0.9  
Since 1 July snowfall T 1.1  
Since 1 September snowfall T 1.1  
Snow Depth 0.00 in    
Sea Level Pressure  
Sea Level Pressure 30.39 in    
Wind  
Wind Speed 6 mph (SSW)    
Max Wind Speed 15 mph    
Max Gust Speed 17 mph    
Visibility 10 miles    
Events      
T = Trace of Precipitation, MM = Missing Value Source: NWS Daily Summary

Daily Weather History Graph

Daily Weather History Graph

Search for Another Location

Airport:

Trip Planner

Search our weather history database for the weather conditions in past years. The results will help you decide how hot, cold, wet, or windy it might be!

Date:

Astronomy

Nov. 27, 2012 Rise Set
Actual Time 7:16 AM CST 4:57 PM CST
Civil Twilight 6:46 AM CST 5:26 PM CST
Nautical Twilight 6:13 AM CST 5:59 PM CST
Astronomical Twilight 5:41 AM CST 6:31 PM CST
Moon 4:29 PM CST (11/27) 6:21 AM CST (11/27)
Length of Visible Light 10h 40m
Length of Day
9h 41m
Waxing Gibbous, 99% of the Moon is Illuminated
Nov 27
Waxing Gibbous
Nov 28
Full
Dec 6
Last Quarter
Dec 13
New
Dec 19
First Quarter

Hourly Weather History & Observations

Time (CST) Temp. Windchill Dew Point Humidity Pressure Visibility Wind Dir Wind Speed Gust Speed Precip Events Conditions
12:53 AM 19.0 °F 13.9 °F 10.0 °F 68% 30.47 in 10.0 mi North 3.5 mph - N/A   Clear
1:53 AM 19.0 °F 13.9 °F 10.0 °F 68% 30.47 in 10.0 mi North 3.5 mph - N/A   Clear
2:53 AM 18.0 °F 11.1 °F 10.0 °F 71% 30.48 in 10.0 mi NW 4.6 mph - N/A   Clear
3:53 AM 18.0 °F 12.7 °F 10.0 °F 71% 30.46 in 10.0 mi NW 3.5 mph - N/A   Clear
4:53 AM 17.1 °F 7.6 °F 9.0 °F 71% 30.47 in 10.0 mi NW 6.9 mph - N/A   Clear
5:53 AM 15.1 °F - 7.0 °F 70% 30.46 in 10.0 mi Calm Calm - N/A   Clear
6:53 AM 18.0 °F - 7.0 °F 62% 30.46 in 10.0 mi Calm Calm - N/A   Clear
7:53 AM 16.0 °F - 9.0 °F 74% 30.48 in 10.0 mi Calm Calm - N/A   Partly Cloudy
8:53 AM 21.9 °F 15.7 °F 12.0 °F 66% 30.48 in 10.0 mi South 4.6 mph - N/A   Scattered Clouds
9:53 AM 26.1 °F 17.6 °F 12.0 °F 55% 30.47 in 10.0 mi South 8.1 mph - N/A   Mostly Cloudy
10:53 AM 30.0 °F 22.4 °F 12.0 °F 47% 30.46 in 10.0 mi South 8.1 mph - N/A   Mostly Cloudy
11:53 AM 33.1 °F 24.9 °F 12.0 °F 42% 30.41 in 10.0 mi South 10.4 mph - N/A   Mostly Cloudy
12:53 PM 37.0 °F 29.3 °F 12.0 °F 36% 30.37 in 10.0 mi South 11.5 mph - N/A   Mostly Cloudy
1:53 PM 39.0 °F 31.8 °F 12.9 °F 34% 30.33 in 10.0 mi South 11.5 mph - N/A   Mostly Cloudy
2:53 PM 39.9 °F 33.4 °F 14.0 °F 35% 30.30 in 10.0 mi SSW 10.4 mph - N/A   Mostly Cloudy
3:53 PM 39.0 °F 32.3 °F 15.1 °F 38% 30.31 in 10.0 mi South 10.4 mph - N/A   Scattered Clouds
4:53 PM 34.0 °F 27.2 °F 15.1 °F 46% 30.30 in 10.0 mi South 8.1 mph - N/A   Mostly Cloudy
5:53 PM 30.9 °F 24.3 °F 15.1 °F 52% 30.30 in 10.0 mi South 6.9 mph - N/A   Scattered Clouds
6:53 PM 28.9 °F 20.4 °F 15.1 °F 56% 30.30 in 10.0 mi SSW 9.2 mph - N/A   Scattered Clouds
7:53 PM 30.0 °F 23.2 °F 16.0 °F 56% 30.32 in 10.0 mi SSW 6.9 mph - N/A   Scattered Clouds
8:53 PM 30.0 °F 23.2 °F 17.1 °F 59% 30.33 in 10.0 mi SSW 6.9 mph - N/A   Scattered Clouds
9:53 PM 28.0 °F 20.0 °F 17.1 °F 63% 30.33 in 10.0 mi SSW 8.1 mph - N/A   Scattered Clouds
10:53 PM 27.0 °F 18.7 °F 17.1 °F 66% 30.33 in 10.0 mi SSW 8.1 mph - N/A   Clear
11:53 PM 28.9 °F 21.9 °F 18.0 °F 64% 30.34 in 10.0 mi SSW 6.9 mph - N/A   Clear